Location: Aytr�
(46.1357°N, 1.1145°W)
Time: 10:42:05
(UTC+00:00)

Nauka - Visible Passes

Search period start: 17 September 2021 00:00
Search period end: 27 September 2021 00:00
Orbit: 419 x 423 km, 51.6° (Epoch: 16 September)

Date Brightness Start Highest point End Pass type
(mag) Time Alt. Az. Time Alt. Az. Time Alt. Az.
17 Sep ? 19:37:03 10° SW 19:40:19 49° SE 19:41:04 40° ESE visible
17 Sep ? 21:14:00 10° W 21:14:06 11° W 21:14:06 11° W visible
18 Sep ? 18:50:29 10° SSW 18:53:31 32° SE 18:56:29 11° ENE visible
18 Sep ? 20:26:58 10° W 20:29:30 41° WNW 20:29:30 41° WNW visible
19 Sep ? 19:39:58 10° WSW 19:43:19 72° NNW 19:44:44 32° NE visible
19 Sep ? 21:17:27 10° WNW 21:17:45 12° WNW 21:17:45 12° WNW visible
20 Sep ? 18:53:03 10° WSW 18:56:25 79° SSE 18:59:49 10° ENE visible
20 Sep ? 20:30:22 10° WNW 20:32:50 31° NW 20:32:50 31° NW visible
21 Sep ? 19:43:16 10° W 19:46:29 40° NNW 19:47:50 27° NE visible
21 Sep ? 21:20:48 10° WNW 21:20:50 10° WNW 21:20:50 10° WNW visible
22 Sep ? 18:56:13 10° W 18:59:30 51° NNW 19:02:46 10° ENE visible
22 Sep ? 20:33:46 10° WNW 20:35:45 25° NW 20:35:45 25° NW visible
23 Sep ? 19:46:42 10° WNW 19:49:46 31° N 19:50:38 27° NNE visible
24 Sep ? 18:59:35 10° WNW 19:02:43 34° N 19:05:28 12° NE visible
24 Sep ? 20:36:57 10° WNW 20:38:28 22° NW 20:38:28 22° NW visible
25 Sep ? 19:49:58 10° WNW 19:53:03 32° N 19:53:16 31° NNE visible
26 Sep ? 19:02:56 10° WNW 19:05:58 30° N 19:08:05 16° NE visible
26 Sep ? 20:39:57 10° WNW 20:41:04 19° NW 20:41:04 19° NW visible
